This demonstration page uses our WeatherBlox Daily Observations layout. Learn more.

Left ArrowRight Arrow

38.88101, -77.10428

Hourly Observations for October 28, 2022

Temp ( °F °C ) Dew Point ( °F °C ) Humidity (%) Winds ( mph kmh ) Pressure ( in mb ) Visibility ( mi km ) Precip ( " mm )
12:52 am 00:52 Clear 52 11.1 36 2.2 54 54 NNE 12 19 30.36 1028 10 16 0.00 0.00
1:52 am 01:52 Mostly Clear 51 10.6 35 1.7 54 54 N 13 20 30.39 1029 10 16 0.00 0.00
2:52 am 02:52 Mostly Clear 50 10 35 1.7 56 56 N 12 19 30.38 1029 10 16 0.00 0.00
3:52 am 03:52 Mostly Clear 49 9.4 35 1.7 59 59 NNE 14 22 30.38 1029 10 16 0.00 0.00
4:52 am 04:52 Mostly Clear 48 8.9 35 1.7 61 61 NNE 9 15 30.40 1030 10 16 0.00 0.00
5:52 am 05:52 Partly Cloudy 48 8.9 35 1.7 61 61 NNE 10 17 30.42 1030 10 16 0.00 0.00
6:52 am 06:52 Mostly Clear 47 8.3 35 1.7 63 63 NNE 9 15 30.43 1031 10 16 0.00 0.00
7:52 am 07:52 Partly Cloudy 47 8.3 35 1.7 63 63 NNE 10 17 30.44 1031 10 16 0.00 0.00
8:52 am 08:52 Mostly Cloudy 50 10 36 2.2 58 58 NNE 13 20 30.47 1032 10 16 0.00 0.00
9:52 am 09:52 Cloudy 51 10.6 38 3.3 61 61 NNE 9 15 30.48 1032 10 16 0.00 0.00
10:52 am 10:52 Cloudy 53 11.7 40 4.4 61 61 NE 9 15 30.48 1032 10 16 0.00 0.00
11:52 am 11:52 Cloudy 56 13.3 42 5.6 60 60 NE 10 17 30.48 1032 10 16 0.00 0.00
12:52 pm 12:52 Cloudy 57 13.9 44 6.7 62 62 NNE 10 17 30.46 1031 10 16 0.00 0.00
1:52 pm 13:52 Cloudy 59 15 45 7.2 60 60 ENE 10 17 30.45 1031 10 16 0.00 0.00
2:52 pm 14:52 Cloudy 60 15.6 45 7.2 57 57 N 9 15 30.44 1031 10 16 0.00 0.00
3:52 pm 15:52 Cloudy 60 15.6 46 7.8 60 60 NE 9 15 30.44 1031 10 16 0.00 0.00
4:52 pm 16:52 Cloudy 59 15 46 7.8 62 62 NE 10 17 30.44 1031 10 16 0.00 0.00
5:52 pm 17:52 Mostly Cloudy 58 14.4 45 7.2 62 62 NE 10 17 30.45 1031 10 16 0.00 0.00
6:52 pm 18:52 Mostly Cloudy 56 13.3 46 7.8 69 69 NE 9 15 30.45 1031 10 16 0.00 0.00
7:52 pm 19:52 Partly Cloudy 54 12.2 46 7.8 74 74 NE 8 13 30.47 1032 10 16 0.00 0.00
8:52 pm 20:52 Partly Cloudy 54 12.2 46 7.8 74 74 ENE 9 15 30.46 1031 10 16 0.00 0.00
9:52 pm 21:52 Partly Cloudy 53 11.7 46 7.8 77 77 NE 9 15 30.47 1032 10 16 0.00 0.00
10:52 pm 22:52 Partly Cloudy 53 11.7 46 7.8 77 77 NE 10 17 30.48 1032 10 16 0.00 0.00
11:52 pm 23:52 Partly Cloudy 52 11.1 44 6.7 74 74 NNE 9 15 30.48 1032 10 16 0.00 0.00

Powered by AerisWeather